Theta_e
317 317 317 317 317 317 318 318 318 318 319 319 319 319 320 319 320 320 321 321 320 320 319 319 318 318 318 318 318 319 318 315 311 310 309 312 318 325 333 335 334 335 343 352 347 343 337 339 338 342 339 340 338 335 341 341 344 340 328 323 320 323 321 326 323 324 325 326 332 334 335 333 330 335 337 341 338 337 337 337 339 342 341 343 344 345 346 346
317 317 317 317 317 317 318 318 318 318 319 319 319 319 319 320 320 320 320 320 320 320 320 319 318 318 318 318 318 318 317 314 311 310 310 318 327 327 333 338 338 339 346 345 341 338 334 333 337 337 335 331 339 333 342 337 344 332 327 325 321 325 327 330 329 330 328 325 333 335 336 334 332 335 337 334 333 334 333 335 337 337 340 343 344 344 344 344
317 317 317 317 317 317 317 318 318 318 319 319 318 319 319 319 320 320 320 320 320 320 319 318 318 318 318 318 318 320 316 311 311 309 315 331 330 330 333 340 341 344 346 341 342 339 335 334 336 335 332 329 332 330 338 335 339 335 329 322 324 330 331 331 332 331 332 330 332 333 334 334 335 336 339 333 332 334 332 332 334 334 334 337 340 342 342 343
317 317 317 317 317 317 317 318 318 318 318 318 319 319 319 319 319 320 320 320 320 320 319 318 318 318 318 317 319 319 315 310 307 312 318 336 340 332 334 340 343 341 349 346 345 340 340 339 337 335 330 328 329 333 331 336 332 334 330 325 328 332 330 332 333 333 334 332 332 333 334 332 335 336 336 334 331 332 334 337 335 334 335 337 339 341 341 341
317 317 317 317 316 316 317 317 318 318 318 318 318 318 319 319 319 320 319 319 319 320 319 318 318 318 318 319 317 316 310 302 308 314 322 338 350 338 335 339 344 339 348 346 342 339 340 336 334 332 327 323 328 329 329 335 338 334 329 332 333 333 327 333 334 332 333 331 332 333 330 331 337 336 334 335 330 330 335 338 339 339 339 338 338 339 341 340
317 317 317 317 317 317 317 317 318 318 318 318 318 319 319 319 319 319 319 319 319 319 319 318 318 318 318 319 318 314 302 295 307 312 331 338 348 340 336 341 345 345 347 341 336 337 336 332 329 322 321 323 324 323 328 333 337 324 331 333 335 335 332 336 335 336 335 331 329 329 333 335 333 332 335 335 333 336 341 342 341 341 341 341 341 340 339 339
317 317 317 317 317 316 317 317 317 318 317 318 318 318 318 318 318 318 318 318 318 319 319 318 318 317 316 319 315 312 301 302 308 314 334 348 347 338 338 341 346 346 342 336 334 333 332 328 324 320 320 321 325 325 327 330 335 330 326 331 332 334 333 336 335 336 334 331 329 332 335 331 332 328 335 333 337 338 342 343 342 343 343 342 340 340 339 339
316 316 316 317 316 316 316 317 317 317 317 317 318 318 318 318 318 318 318 319 319 319 318 318 318 319 320 316 312 304 303 302 311 323 344 351 342 336 338 335 341 341 337 332 331 330 329 324 320 323 319 315 320 325 327 327 331 327 326 330 331 332 333 333 333 331 330 330 332 331 329 329 333 331 334 333 336 339 342 343 342 342 342 341 340 340 340 340
316 316 317 316 316 316 316 316 317 317 317 317 317 317 318 317 317 318 318 319 319 319 318 318 318 318 319 315 307 297 298 306 319 330 340 341 335 334 334 333 338 335 333 332 332 330 327 322 322 320 313 318 322 324 325 324 321 329 329 330 329 329 331 331 331 330 330 329 329 326 326 330 333 335 331 335 337 341 342 341 341 341 340 340 340 340 340 340
316 316 316 316 316 315 316 316 317 317 317 316 317 317 317 317 317 318 318 319 319 319 319 319 320 319 317 310 304 295 302 318 317 327 337 337 333 333 336 335 335 334 329 328 329 328 323 323 321 322 321 320 323 322 326 323 320 326 328 329 328 329 329 329 326 326 327 326 327 323 324 326 332 330 324 335 339 341 340 340 341 340 339 340 340 341 341 340
316 316 315 315 315 315 316 316 316 316 316 316 316 316 316 317 317 317 318 319 319 319 318 319 321 319 312 313 300 296 310 314 315 314 320 334 331 329 332 335 333 330 328 326 324 328 324 324 325 321 318 315 320 319 324 324 327 325 323 322 322 323 323 322 321 321 323 322 325 325 323 326 329 329 325 334 340 341 339 338 339 339 339 340 341 341 342 341
316 315 315 315 315 315 316 316 316 315 315 315 315 315 315 316 316 317 319 321 319 319 320 320 321 319 313 307 301 301 312 314 315 315 316 320 323 328 329 335 331 328 325 322 323 326 323 323 323 316 305 320 311 317 318 326 323 323 321 317 319 319 318 320 318 320 322 321 325 326 323 321 323 322 329 337 340 340 339 338 338 338 339 339 340 340 341 341
315 315 315 315 315 315 316 315 315 315 314 314 315 314 314 314 315 318 322 319 319 320 321 322 321 319 311 301 305 312 315 316 315 317 320 319 318 328 328 331 334 325 323 323 321 324 321 323 322 313 317 314 316 306 312 323 321 321 320 318 316 316 315 319 320 320 320 322 325 325 312 318 322 325 332 339 339 339 337 337 337 338 339 339 340 339 340 341
315 315 315 315 315 315 315 315 314 314 314 314 314 313 313 314 316 321 322 320 321 321 322 323 320 318 308 302 308 312 314 317 319 318 318 318 318 322 325 328 329 321 321 321 321 322 319 323 321 316 315 314 312 315 310 311 319 312 315 315 312 310 310 318 320 320 318 323 324 325 313 317 321 325 334 338 340 337 335 336 337 337 338 338 339 339 339 341
315 315 314 314 315 315 315 314 313 313 313 313 312 312 312 313 318 322 322 322 322 323 324 322 319 311 306 307 314 317 328 329 320 309 316 318 320 320 321 325 326 320 318 319 320 321 318 320 319 314 309 314 313 309 306 308 309 312 307 305 310 308 311 315 319 319 317 320 325 322 314 316 321 325 334 338 339 338 335 336 337 337 337 338 338 339 338 339
314 314 314 314 315 314 314 313 312 313 313 312 310 311 314 316 323 323 323 323 324 324 322 316 313 312 307 300 308 321 319 310 307 310 315 312 316 319 322 322 323 319 318 317 319 322 317 320 314 313 312 310 309 307 305 304 305 307 306 305 306 308 309 312 317 320 321 320 322 321 314 318 318 326 334 338 338 337 336 336 336 336 337 337 337 338 338 339
314 314 314 314 315 314 313 312 312 312 311 311 311 313 316 322 324 325 326 325 324 322 317 314 313 313 302 307 313 307 303 306 310 308 310 309 308 317 322 319 317 316 317 315 317 320 316 314 313 311 311 307 307 307 300 299 301 303 306 304 308 306 309 308 315 317 318 319 316 321 317 318 320 330 334 336 337 336 336 336 336 336 336 337 337 337 338 339
313 313 313 314 314 313 312 311 311 311 310 310 310 311 313 324 325 324 322 321 322 320 314 317 313 310 307 311 299 300 306 305 306 307 306 308 308 316 321 317 316 315 314 310 312 312 313 309 310 304 306 305 305 302 297 294 298 301 303 303 304 308 310 310 310 313 316 316 316 318 318 318 321 328 333 335 337 336 335 336 336 336 336 336 337 337 338 339
314 314 314 314 313 312 312 311 310 310 309 310 312 318 317 321 313 316 312 317 302 299 297 298 300 295 292 299 304 305 304 306 306 305 305 310 307 320 322 321 316 311 307 306 306 308 310 308 307 304 299 301 301 302 300 303 303 303 305 305 305 304 306 308 312 315 314 312 312 314 314 317 320 324 332 334 336 335 335 337 337 336 336 336 336 337 338 339
314 314 314 313 312 312 311 311 310 308 308 309 309 307 308 303 301 299 304 303 296 295 296 297 299 299 302 303 302 305 307 306 302 303 305 312 312 319 318 316 312 310 306 302 304 305 309 301 298 298 300 302 304 304 304 306 305 307 306 306 305 306 308 311 310 313 315 312 312 313 314 314 316 320 329 333 335 334 335 335 335 336 335 336 336 336 337 339
313 313 313 312 311 311 311 310 309 308 309 309 306 305 298 298 296 294 299 299 299 298 297 298 298 298 300 302 302 302 299 302 303 303 305 309 317 318 312 312 307 303 304 305 303 307 306 299 299 302 303 304 305 305 305 304 306 304 305 305 306 307 305 310 310 311 313 310 311 314 312 314 316 319 326 333 333 331 332 334 335 335 336 336 336 336 337 340
313 313 313 311 311 310 310 309 308 308 308 308 307 301 302 303 306 306 301 294 298 298 298 298 299 298 302 301 303 302 301 298 302 304 307 309 315 312 310 309 304 301 304 304 303 301 299 297 300 304 304 304 304 305 305 303 302 305 304 305 304 306 307 309 309 310 312 310 309 312 311 313 315 317 324 331 332 333 334 335 335 336 335 336 336 337 338 339
312 312 312 312 310 309 309 308 308 306 310 309 304 303 302 307 308 307 303 297 294 299 298 299 299 300 301 304 302 303 299 298 297 302 304 307 311 311 311 308 304 304 302 302 298 298 295 298 302 304 304 302 302 303 303 303 303 302 303 302 302 306 305 304 305 307 309 309 309 311 308 312 315 318 321 330 332 334 336 336 336 337 336 336 336 337 337 338
312 313 312 311 310 309 309 307 306 307 307 305 305 303 305 309 311 306 299 294 292 296 299 301 300 300 299 298 303 301 298 299 299 300 307 308 307 309 309 309 306 304 300 301 300 299 298 302 305 303 303 301 299 301 301 300 299 301 301 303 304 304 306 305 305 308 309 310 309 308 308 309 313 312 318 326 332 333 335 335 336 337 338 339 340 339 339 338
312 312 312 311 309 308 306 305 307 305 305 305 305 307 308 310 312 306 298 295 294 296 301 301 301 301 300 304 305 299 300 299 300 303 304 303 301 305 306 310 309 303 303 302 301 300 300 304 305 302 301 301 300 298 300 300 297 299 302 302 304 306 305 306 307 306 306 306 309 307 302 304 313 313 314 323 328 330 334 333 333 335 336 338 337 338 340 340
312 312 312 310 310 308 306 304 306 305 304 304 306 308 310 310 311 308 299 291 288 295 300 293 303 296 304 300 301 299 299 297 303 304 305 306 308 302 304 305 308 302 304 302 301 301 301 305 304 302 301 300 299 299 301 301 298 297 299 304 304 305 306 306 306 306 302 301 306 307 301 301 311 310 313 322 325 327 331 331 332 334 335 336 336 337 338 338
312 311 311 309 309 306 309 303 305 305 303 305 309 310 310 311 314 306 295 289 287 295 292 298 298 297 302 300 300 300 291 294 304 304 304 307 303 306 300 303 306 307 307 306 302 299 304 303 303 303 302 300 299 297 301 301 298 296 304 306 305 304 304 306 306 306 305 308 308 308 305 300 301 309 314 320 322 324 328 330 332 333 335 335 336 337 338 339
312 311 309 308 307 306 305 306 307 304 303 307 310 310 311 312 308 303 293 282 281 297 290 295 297 303 301 300 301 297 296 300 297 302 306 307 306 302 299 300 303 304 305 305 295 304 304 302 302 301 302 301 299 301 303 303 299 301 306 307 306 305 306 307 306 306 306 304 301 306 307 300 301 308 313 320 315 321 325 328 330 332 334 335 336 337 338 339
310 310 309 308 307 304 309 307 306 303 307 309 309 310 311 309 302 297 288 280 293 293 302 293 304 300 298 300 298 298 297 300 294 300 306 307 307 302 297 299 302 305 307 305 301 302 305 306 304 304 302 300 303 305 305 304 300 304 309 309 308 308 308 308 306 305 305 302 299 304 306 299 300 307 308 318 314 314 321 327 330 332 333 335 335 337 338 340
310 310 309 307 306 307 308 306 306 308 309 309 309 310 307 303 298 289 283 278 294 286 294 295 295 291 296 294 294 296 295 297 299 301 304 301 303 305 302 303 300 299 301 305 305 306 306 311 311 306 303 305 305 306 306 305 305 308 307 306 306 307 306 307 307 306 303 296 300 305 306 303 297 305 308 309 309 314 320 326 330 333 334 334 336 337 337 338
309 308 307 307 305 307 307 303 305 309 309 310 308 305 302 299 291 285 278 285 291 291 294 293 291 296 292 291 290 295 295 296 297 300 299 303 301 301 301 300 303 299 299 299 300 303 305 306 306 307 310 308 308 304 307 308 307 307 303 303 303 302 304 304 302 304 296 294 302 305 304 304 296 302 309 313 317 316 318 319 326 329 332 334 335 336 337 338
307 306 307 306 306 310 303 301 306 309 309 308 306 300 297 287 290 283 282 294 284 289 288 289 292 291 291 292 291 292 291 295 297 298 296 297 295 294 294 292 292 292 293 296 295 300 300 303 306 306 312 308 305 303 304 306 306 304 303 302 297 296 297 292 296 292 293 293 301 305 304 300 299 305 310 312 313 314 318 318 321 328 331 334 335 336 337 338
306 305 305 307 309 308 308 310 311 310 308 306 303 300 292 286 280 287 285 289 284 291 288 292 290 290 291 291 290 292 294 291 297 297 298 297 296 295 296 294 295 293 291 295 295 295 298 304 304 305 307 309 308 300 301 300 303 302 300 299 295 292 291 288 292 295 295 299 301 301 304 298 304 306 310 310 313 315 317 321 321 324 331 334 336 337 336 337
306 306 306 307 306 308 310 314 311 308 305 306 302 295 290 282 281 291 286 288 287 291 291 289 291 291 291 288 289 291 290 293 295 295 297 294 295 293 294 295 295 294 294 295 294 294 291 292 299 303 300 303 305 305 304 303 304 303 305 302 299 297 292 289 292 289 291 294 299 303 297 297 297 302 311 312 314 316 317 318 321 326 330 335 336 337 337 337
305 306 306 307 309 311 311 310 309 308 304 301 297 292 284 283 286 285 286 288 290 290 289 291 289 289 288 289 291 292 292 289 294 294 294 293 291 292 291 291 295 295 294 291 294 294 293 295 299 300 301 302 303 305 306 305 304 306 307 307 301 298 303 294 297 295 295 294 294 297 296 304 302 311 311 315 315 315 316 317 319 323 328 331 333 334 335 336
304 306 306 307 308 307 308 308 308 307 302 299 293 289 285 286 284 288 288 292 290 288 288 290 289 287 287 288 290 290 294 290 292 293 292 292 292 291 293 293 293 294 291 290 293 290 293 292 299 301 303 303 303 304 305 307 296 302 304 299 302 309 305 299 299 302 299 296 293 301 299 302 307 308 310 311 311 312 314 315 317 319 323 330 330 332 335 336
303 305 305 306 307 307 308 308 307 305 304 298 291 286 289 289 292 290 293 290 290 290 288 285 285 285 284 284 287 288 290 293 290 291 289 293 290 293 291 293 296 294 295 293 291 294 289 293 299 299 299 303 305 304 304 305 307 304 298 302 308 310 308 302 293 297 294 291 296 297 295 297 299 296 308 310 309 310 312 313 314 318 324 327 328 332 334 336
302 302 304 306 306 308 308 308 306 303 302 297 291 291 294 289 294 293 294 292 290 290 288 286 286 289 285 285 285 287 290 288 288 290 288 292 287 296 292 292 295 294 295 297 292 293 295 290 297 299 299 302 304 305 304 306 308 304 303 311 301 296 295 301 299 290 290 290 292 296 298 298 300 300 305 306 308 310 313 315 314 315 321 324 327 331 335 336
302 301 300 302 307 308 308 308 304 304 299 293 291 288 292 291 295 293 294 293 291 290 287 287 286 288 288 285 287 288 289 286 289 288 287 289 286 294 292 293 292 296 296 297 294 295 297 291 295 298 298 300 301 302 297 301 306 307 308 305 308 304 300 297 298 299 298 292 292 293 296 294 302 303 305 306 310 311 312 315 314 315 319 323 327 329 332 335
301 299 297 305 307 308 308 308 303 301 295 289 291 290 293 291 294 296 296 294 291 290 288 288 289 287 288 287 288 287 289 289 289 288 289 291 288 295 292 296 292 294 296 297 295 298 293 297 289 297 300 299 296 301 299 300 300 302 302 301 303 303 306 305 304 299 296 294 293 293 292 297 304 308 307 308 310 315 314 316 320 318 319 322 327 329 332 334
300 297 298 306 307 308 308 306 299 293 292 292 294 292 294 293 294 295 296 296 293 295 291 289 289 287 288 287 288 290 288 290 290 288 289 290 290 287 295 294 295 292 296 296 295 296 293 293 289 294 295 296 298 300 299 298 298 297 298 300 301 301 298 295 294 303 300 296 292 293 292 300 306 312 310 309 311 313 317 317 319 320 320 323 325 329 333 334
298 295 297 306 307 306 304 296 295 296 294 292 291 294 292 299 293 294 295 297 295 293 296 292 291 291 290 289 289 289 289 289 290 289 289 288 292 291 294 297 295 296 293 292 294 297 297 296 292 289 292 295 298 300 301 300 300 299 300 299 299 300 300 298 292 297 300 300 301 299 295 299 311 315 313 312 313 313 314 318 317 318 321 322 325 327 332 335
296 295 304 306 307 304 300 293 297 296 293 294 297 296 297 294 293 294 294 295 293 295 293 292 290 290 291 290 290 289 290 288 290 288 291 291 291 293 296 296 296 295 296 295 298 297 300 292 289 291 295 297 299 301 302 302 301 299 299 299 298 296 296 295 296 298 297 300 297 298 295 300 309 314 313 314 318 314 315 311 314 318 320 322 324 326 331 335
295 296 299 306 307 306 298 289 290 292 294 295 295 293 296 295 294 293 292 294 293 292 291 291 292 294 290 293 291 288 291 285 291 290 289 292 290 297 296 296 296 293 294 295 292 297 290 293 290 288 290 293 296 299 298 299 300 296 295 297 296 297 297 297 298 300 295 298 299 297 292 299 308 320 320 317 316 313 311 313 314 313 316 319 323 327 331 337
296 299 299 302 304 302 293 293 292 291 291 291 292 291 292 293 295 295 294 293 295 294 292 291 292 293 292 293 291 291 291 289 287 292 291 292 292 297 296 295 297 294 297 300 299 298 290 291 290 285 285 284 284 286 290 293 293 295 295 295 296 295 295 296 296 299 292 299 301 297 298 305 310 316 315 316 316 319 318 314 313 315 318 319 321 322 331 336
294 292 296 298 299 298 296 297 294 292 291 291 291 291 292 291 294 296 296 293 296 295 294 294 294 294 292 292 290 289 289 292 289 288 290 289 292 294 296 296 295 295 298 300 299 296 291 293 292 290 287 288 291 289 290 293 293 291 293 294 294 295 296 296 297 295 294 300 297 301 303 303 306 308 312 313 315 314 316 319 314 315 318 321 326 328 329 333
297 292 291 290 296 296 293 295 293 293 290 292 289 291 289 291 292 294 297 292 295 294 293 294 293 291 291 291 289 288 289 289 291 290 289 289 291 292 296 296 296 297 299 297 298 295 292 288 290 291 291 291 292 291 292 292 290 292 292 292 295 294 295 294 293 295 300 296 293 302 305 301 303 307 310 314 316 319 317 318 317 321 324 322 324 332 333 330
292 293 295 295 290 288 290 291 293 292 292 293 292 293 290 290 291 289 294 295 295 296 291 293 294 293 292 290 290 287 288 288 289 287 290 291 290 292 292 294 293 297 298 295 298 293 289 286 290 290 289 291 292 292 293 292 292 292 292 293 293 295 295 293 294 296 297 295 295 303 307 305 306 307 309 312 318 316 314 314 316 316 315 319 324 322 322 326
297 295 295 298 291 292 292 292 293 292 291 293 293 292 290 289 289 291 291 292 293 292 294 288 290 292 292 293 291 288 289 285 286 290 289 289 289 290 289 291 294 297 296 294 295 296 292 287 289 290 289 290 291 291 293 292 292 292 293 294 294 294 295 295 296 298 298 298 300 302 305 304 308 309 310 318 324 324 322 321 320 320 316 319 318 320 317 319
294 294 293 297 296 294 294 293 292 291 290 294 290 290 290 290 289 291 293 292 289 290 295 291 291 293 293 293 292 289 290 290 289 287 291 289 289 291 289 290 290 295 296 292 293 295 290 287 293 290 289 289 291 293 293 292 292 291 293 294 295 295 296 297 299 305 308 306 302 301 302 303 311 321 322 324 327 324 322 325 327 330 330 327 325 322 319 318
300 301 300 294 292 294 295 293 291 290 290 291 290 290 290 290 290 292 292 295 292 290 293 291 293 293 294 293 292 292 294 293 293 292 294 293 288 293 289 290 294 290 293 292 292 292 291 288 291 289 286 287 291 291 292 292 292 292 292 294 295 295 297 303 304 309 308 306 306 303 302 304 317 320 323 326 327 326 324 335 338 339 339 339 335 331 327 324
304 304 302 298 292 295 292 293 292 290 287 291 291 291 289 290 292 293 290 294 295 296 295 294 294 293 292 292 291 293 295 296 296 297 297 297 297 296 296 295 294 292 291 291 294 290 291 289 287 287 284 285 290 291 290 291 292 290 292 295 297 299 304 306 308 310 310 310 308 305 304 314 315 320 319 322 325 327 325 336 336 338 340 339 340 341 339 332
Wind_Speed
21 23 22 22 22 21 22 22 22 21 20 20 20 20 20 19 19 19 18 18 16 16 15 13 12 11 10 11 10 9 7 6 5 4 6 15 8 12 10 4 15 18 12 16 18 18 15 15 14 13 12 9 6 7 7 7 4 4 4 4 6 4 5 2 2 1 3 2 6 10 11 9 9 8 6 8 7 9 9 5 7 7 7 9 12 18 19 20
22 22 22 23 22 22 22 22 22 22 21 21 20 20 20 20 19 19 18 18 17 15 15 13 12 10 10 8 8 8 7 5 7 9 18 7 12 16 14 6 14 19 15 17 22 19 19 17 15 15 13 10 5 6 9 5 7 6 4 5 6 5 2 1 1 2 4 4 7 8 10 9 8 11 9 7 9 11 8 6 8 10 11 14 17 20 21 22
22 23 23 22 22 22 22 21 21 21 20 20 20 19 19 20 20 19 18 17 17 16 14 13 11 10 8 7 6 3 4 5 6 10 10 13 20 16 16 10 16 19 17 20 19 21 23 23 19 16 11 8 7 8 10 5 8 8 5 7 9 5 3 4 5 6 4 3 7 7 9 7 8 8 9 7 11 11 11 9 9 11 13 15 19 21 21 21
23 22 22 23 23 22 22 21 22 22 22 22 20 20 19 19 19 18 18 17 17 15 13 12 10 8 7 5 5 3 4 5 3 2 3 6 13 19 18 15 16 18 12 12 13 9 7 16 17 16 11 7 6 7 10 8 7 6 7 8 2 2 5 2 1 3 5 3 5 6 6 6 9 7 9 8 10 10 9 13 16 16 17 19 21 22 22 22
22 22 22 22 24 23 23 22 22 21 21 21 20 19 19 19 18 18 17 17 16 15 12 11 9 7 5 3 3 1 3 3 4 3 3 12 6 18 18 17 18 15 14 13 9 7 15 17 15 10 8 8 7 8 11 10 9 4 11 8 4 1 2 2 4 4 7 2 3 6 10 8 8 7 10 13 10 8 12 14 12 16 20 22 24 24 22 23
23 22 21 21 22 23 23 22 22 22 22 21 20 19 19 19 18 18 17 15 15 14 11 8 6 6 4 1 2 1 2 2 2 3 8 17 6 15 19 17 19 15 15 16 13 13 16 13 14 10 5 7 11 10 7 12 11 8 9 12 9 8 7 2 6 6 8 5 1 6 6 5 12 7 11 14 15 2 2 12 13 17 20 22 22 23 23 23
23 22 22 22 22 24 24 23 22 22 22 21 20 18 17 17 18 17 16 14 13 12 9 7 4 4 4 3 2 3 1 8 5 9 19 16 7 16 19 17 22 16 17 17 15 16 16 17 14 11 8 6 8 9 4 12 12 11 7 3 7 7 12 9 10 10 9 7 7 5 6 9 11 8 10 13 11 2 8 14 15 16 17 20 22 23 23 23
23 22 22 22 23 24 24 23 23 23 23 21 20 18 16 17 17 17 16 14 11 10 7 5 3 2 3 3 3 1 0 5 6 12 17 6 12 16 19 15 19 17 18 19 20 18 18 18 15 10 8 11 4 11 5 8 13 13 12 10 10 7 8 7 7 8 8 8 8 5 8 10 13 9 10 13 9 6 11 15 17 17 18 19 21 21 20 19
23 23 22 23 24 24 25 25 25 23 22 22 20 18 17 17 15 16 16 13 9 6 5 5 6 6 3 2 1 6 3 2 4 10 9 7 10 14 19 15 16 18 17 16 18 17 18 14 11 13 6 11 6 13 7 7 9 15 14 4 4 5 6 7 10 11 11 8 6 7 10 10 13 6 11 11 11 11 14 16 18 19 19 19 20 21 20 20
23 23 23 24 24 25 24 25 24 23 22 22 21 19 18 17 15 15 15 12 8 4 3 5 7 7 5 1 2 4 1 3 5 10 10 9 9 9 11 16 20 17 15 16 15 17 16 14 16 7 4 4 8 8 10 10 1 3 11 14 14 14 13 11 11 11 10 10 8 9 10 11 9 9 7 11 13 14 16 17 18 20 20 19 18 18 18 20
23 24 24 24 25 25 24 24 24 23 24 22 22 18 18 17 16 15 13 9 5 5 6 7 9 9 2 2 3 5 2 1 2 7 8 3 10 11 11 12 18 17 17 16 17 19 10 12 8 5 2 4 8 5 11 6 6 5 2 5 9 10 12 13 12 13 8 9 9 11 12 10 9 11 11 11 15 18 18 18 18 18 18 17 19 18 17 17
24 25 25 25 26 25 24 24 22 24 23 23 21 17 17 18 17 14 11 4 2 6 8 9 11 3 1 2 6 7 3 1 4 7 3 3 5 13 8 8 12 14 17 18 15 16 7 13 12 11 4 9 7 3 9 9 6 8 6 8 6 8 12 12 12 9 7 8 6 7 9 9 9 10 9 13 15 17 18 18 19 18 16 16 17 16 15 16
25 25 25 25 26 25 24 24 24 24 24 22 19 16 17 18 16 12 5 3 5 7 8 11 8 1 2 5 6 7 7 6 7 9 6 3 5 5 4 7 6 2 4 12 15 13 2 11 11 13 2 6 6 5 3 9 10 5 8 9 11 9 10 9 8 9 9 8 5 5 6 5 10 12 11 15 16 16 16 16 17 15 15 15 17 16 16 15
24 25 26 26 25 25 25 25 25 24 23 21 19 16 17 16 11 7 3 5 9 8 9 11 5 1 1 5 4 2 5 5 6 6 5 2 4 4 5 8 5 1 1 5 5 6 2 5 4 4 2 3 4 4 4 3 5 9 7 4 8 7 7 3 1 4 10 5 10 9 8 7 3 9 12 16 19 19 17 16 17 16 15 15 16 15 17 18
24 25 26 26 27 25 24 25 24 23 23 21 19 16 16 12 8 3 7 9 8 9 11 8 1 2 1 6 5 8 9 3 1 6 4 3 4 5 7 11 10 1 2 6 7 7 3 7 5 6 6 1 3 4 4 3 3 5 6 9 7 7 9 3 3 3 6 4 10 10 8 10 9 6 14 16 17 19 17 17 17 16 16 17 16 17 17 17
25 24 26 26 25 24 25 24 24 22 22 21 21 19 12 8 1 7 4 5 10 11 7 3 1 0 3 4 2 2 1 4 8 7 3 0 1 2 8 12 9 2 3 3 4 6 2 8 11 7 4 2 6 4 3 4 6 4 9 5 8 7 11 8 4 8 11 5 7 13 6 2 4 6 14 16 18 18 16 17 17 18 18 17 16 16 16 16
25 25 25 26 25 25 26 24 23 23 23 19 21 10 8 1 7 6 7 8 6 4 1 1 2 1 1 2 4 1 4 6 2 4 1 4 5 4 11 13 10 7 2 5 7 10 4 8 3 1 5 6 4 5 6 9 8 8 8 10 5 10 9 8 2 4 6 10 7 12 11 11 6 6 13 15 18 18 15 17 18 17 16 17 15 16 16 17
24 24 24 24 24 26 25 25 23 23 23 21 16 7 0 8 8 8 6 3 2 0 2 1 2 2 5 4 10 12 11 10 5 8 12 7 8 10 12 11 10 11 10 8 4 13 7 7 5 8 5 10 7 10 12 13 12 10 9 9 6 6 7 8 4 4 3 6 8 10 13 12 5 3 11 15 17 18 17 17 19 18 17 16 15 16 18 17
25 25 24 23 23 24 24 24 23 23 21 20 5 6 5 3 1 1 1 1 2 1 1 2 3 4 3 14 13 10 7 13 11 6 2 3 6 10 9 6 14 16 13 10 6 10 6 5 4 6 12 14 16 16 14 1 3 10 8 8 5 9 10 10 8 5 4 3 6 9 10 9 10 7 8 11 14 17 16 13 13 15 15 16 16 16 16 17
27 25 24 24 25 23 24 22 22 21 18 13 4 1 2 3 1 1 3 5 3 1 4 8 2 4 10 8 10 11 13 2 3 1 3 4 12 11 10 10 12 10 11 12 10 10 9 11 14 17 17 15 13 14 12 2 6 1 7 8 9 10 10 5 2 5 3 6 9 9 10 11 10 9 10 13 13 12 11 14 14 15 15 16 16 17 18 19
26 25 25 26 26 24 21 23 20 19 15 4 5 4 7 7 6 6 11 8 4 3 5 7 6 6 8 10 10 11 11 4 2 3 1 0 8 14 9 11 13 11 11 10 10 6 10 11 15 17 8 8 9 9 7 9 9 4 2 7 9 10 11 4 0 0 2 5 6 2 5 10 8 6 8 10 13 15 16 16 15 16 17 16 19 19 18 16
27 26 26 28 26 24 23 21 20 16 9 2 5 9 4 5 2 2 2 7 5 2 4 7 3 6 6 8 6 3 3 4 5 9 3 2 12 8 9 10 14 12 11 9 8 8 11 16 17 13 5 4 5 9 11 13 14 10 6 4 4 8 5 9 7 7 8 6 9 9 12 13 11 7 8 13 16 16 18 19 19 19 19 16 17 18 16 15
30 29 26 28 27 25 22 19 17 11 4 4 8 6 6 2 2 2 5 3 7 3 3 2 1 5 6 3 1 2 6 3 5 6 4 2 10 5 12 9 11 9 11 14 14 10 10 14 13 8 9 10 7 10 12 13 12 12 10 8 9 3 6 8 5 3 1 5 5 3 8 11 5 2 8 14 15 15 16 17 15 16 19 20 20 20 19 20
29 27 26 27 27 26 21 19 11 2 4 2 2 7 2 2 6 1 3 3 5 6 2 1 2 2 5 9 2 6 2 2 2 9 4 1 8 1 8 10 12 9 13 16 16 13 11 3 9 10 11 13 13 12 13 11 12 14 15 12 9 6 7 4 2 7 6 6 6 7 10 11 10 9 6 9 13 11 9 11 12 12 12 11 10 13 16 21
27 27 26 26 27 25 23 11 3 4 3 1 1 2 1 4 6 3 3 2 3 3 2 2 2 0 8 2 2 5 1 2 5 4 3 2 3 3 6 6 7 11 11 15 13 12 13 4 11 17 15 14 14 12 14 12 11 11 17 17 12 7 7 6 5 6 4 5 4 4 7 11 8 9 13 6 9 12 11 13 16 16 15 14 16 18 16 16
28 27 26 25 26 27 19 1 3 4 4 1 2 3 5 6 6 2 3 2 1 2 2 4 2 2 2 6 5 3 3 0 3 3 4 3 4 5 2 8 6 9 12 14 11 8 11 9 10 13 17 17 16 14 14 13 11 10 12 16 16 12 9 8 9 5 6 8 2 2 9 11 5 7 8 7 10 14 12 15 17 15 15 16 16 15 17 18
27 26 24 24 22 24 5 2 3 5 3 2 7 11 8 7 4 4 3 1 1 3 3 4 4 3 3 8 12 4 1 5 14 0 4 5 4 3 6 6 7 3 6 6 3 10 8 11 11 10 12 15 15 15 14 16 11 13 3 9 13 15 13 11 9 8 8 6 10 10 5 9 10 8 6 6 10 11 12 15 16 14 16 19 17 18 17 18
26 23 23 24 21 12 1 3 5 4 2 9 12 11 9 6 4 2 2 2 1 2 3 4 4 5 6 11 8 8 3 9 5 5 12 10 2 4 5 7 10 11 10 10 16 3 14 13 15 14 11 11 14 14 13 18 14 5 5 7 12 14 15 13 10 9 8 6 10 9 6 5 10 3 4 6 8 10 13 14 14 15 16 18 18 18 19 20
22 22 21 22 21 4 0 2 1 5 9 9 9 9 7 2 3 1 1 4 2 3 4 2 1 1 11 8 7 10 3 6 6 9 14 3 3 4 7 6 6 7 14 17 13 3 6 12 13 14 12 13 10 11 12 18 14 12 2 11 10 11 11 13 11 10 9 8 15 12 10 10 13 11 6 6 8 11 11 13 14 16 18 18 18 18 18 17
23 21 21 20 11 3 1 1 4 5 8 9 8 8 2 3 2 3 1 4 4 3 5 3 4 8 10 6 4 12 10 8 5 9 7 5 10 2 4 4 3 4 9 11 15 12 1 5 14 13 15 12 7 11 12 17 16 5 8 3 5 10 10 9 10 8 7 14 17 14 12 13 12 16 10 9 10 8 4 7 10 14 16 16 17 18 17 17
23 24 22 16 1 2 4 2 4 10 11 8 8 2 3 1 1 1 4 3 2 3 2 5 8 6 9 11 6 10 5 8 11 12 10 11 9 11 10 5 8 4 4 6 9 11 11 5 8 5 10 9 11 10 13 15 17 10 10 9 5 5 3 6 5 7 12 17 10 14 14 14 15 16 12 9 5 6 8 10 12 14 17 17 16 17 19 19
25 24 24 9 3 2 4 7 14 12 9 11 5 2 2 2 1 4 1 4 2 4 5 5 5 4 7 2 6 10 7 6 10 8 8 8 9 10 10 6 7 6 12 12 10 6 12 14 4 3 9 13 12 12 9 14 15 14 10 11 11 6 6 9 7 12 15 12 5 11 12 11 21 16 14 10 7 10 11 11 11 13 15 16 16 18 17 17
24 25 20 3 3 1 3 6 8 8 10 7 0 1 3 2 4 1 1 4 2 4 1 1 3 5 4 3 8 10 5 9 9 9 4 7 5 7 9 11 9 3 6 3 2 6 10 9 9 5 9 9 14 13 10 11 13 15 14 12 12 11 11 11 11 8 8 8 1 2 9 15 6 6 17 22 18 12 12 12 13 13 14 15 16 16 16 16
24 21 7 2 4 5 5 6 6 9 10 3 1 1 1 3 2 3 3 2 2 2 1 2 4 1 9 6 7 7 3 7 9 8 6 2 7 5 6 11 15 9 2 2 9 7 10 8 13 14 10 5 6 15 12 8 11 14 13 14 12 10 9 12 9 12 10 5 7 12 5 6 6 5 11 16 15 16 14 15 15 14 13 13 15 15 18 17
24 13 6 4 2 4 7 6 7 8 6 4 2 2 4 1 1 2 2 2 1 2 3 2 1 3 4 5 6 6 4 3 9 5 9 7 5 5 8 8 12 10 3 4 1 1 7 4 5 6 2 4 1 5 7 12 10 13 13 11 14 16 8 9 3 8 7 8 8 11 11 1 5 4 6 7 10 12 14 16 17 16 12 11 11 13 16 17
14 6 2 1 2 6 10 8 6 6 3 3 0 2 1 1 2 1 1 1 1 1 3 0 4 3 3 3 3 7 5 3 8 2 5 7 7 6 5 6 8 12 8 4 5 2 2 8 5 6 1 3 5 6 3 6 12 10 12 16 14 7 9 10 5 3 3 4 13 5 7 12 5 10 9 9 11 11 10 13 15 16 14 12 13 14 16 17
8 7 2 4 3 10 11 9 5 3 1 0 1 2 2 3 3 2 3 2 2 1 1 2 3 3 3 4 4 7 8 3 6 4 4 1 2 7 6 5 7 8 8 6 2 1 4 3 5 2 5 4 6 6 8 8 6 6 12 13 6 7 10 9 10 5 10 12 5 7 13 11 9 10 11 11 9 11 11 12 15 17 13 14 14 14 15 17
8 4 3 3 10 14 11 8 1 1 2 2 5 6 1 3 2 3 3 2 2 1 1 1 2 2 2 3 4 6 6 3 6 3 2 5 2 5 5 5 8 8 9 7 4 3 3 5 5 2 4 4 7 5 7 10 10 11 8 10 10 10 12 12 7 13 12 13 9 8 6 11 10 10 5 16 17 14 12 10 13 14 11 15 14 16 16 18
4 2 1 5 14 14 12 6 0 1 2 4 3 5 2 2 3 5 4 1 2 1 2 2 0 3 1 2 2 2 5 3 4 4 2 2 1 4 4 4 6 12 11 8 3 5 3 4 1 2 2 5 4 2 10 11 11 5 1 11 11 4 10 11 13 6 5 11 6 9 9 11 9 11 10 8 12 17 16 9 11 13 13 14 14 15 15 15
4 1 2 10 16 14 12 3 3 4 3 4 3 4 1 3 3 5 7 4 3 1 2 1 1 1 2 2 2 2 2 2 3 2 2 3 0 6 5 6 6 11 12 8 4 6 3 3 5 3 3 3 6 5 4 3 5 13 13 10 7 9 2 9 8 13 10 9 10 7 7 7 8 8 12 14 13 11 14 12 9 11 13 15 14 14 14 16
2 0 1 10 19 15 6 5 7 6 4 2 3 3 3 4 3 6 8 9 2 2 3 2 1 1 1 1 2 1 0 0 1 1 2 2 3 0 4 6 7 8 10 5 2 6 3 3 5 6 5 5 2 5 4 1 3 3 3 3 3 10 11 13 14 11 13 11 7 7 11 3 2 4 11 16 15 13 11 12 10 12 13 13 12 13 13 14
4 4 6 15 17 14 2 4 5 2 2 3 3 3 2 5 3 8 7 7 6 4 3 2 4 3 2 1 2 1 2 1 1 0 0 3 3 2 3 6 7 7 5 3 5 4 5 4 5 6 5 5 7 4 5 6 6 3 4 2 5 4 5 8 11 9 12 13 10 11 10 11 4 1 5 9 11 14 13 11 13 11 11 12 12 14 14 16
4 2 6 11 16 8 5 6 2 4 4 3 4 1 2 3 4 4 5 7 3 4 3 5 4 1 2 2 0 1 1 2 2 1 1 1 2 1 2 4 8 7 5 3 6 1 9 3 4 7 7 10 10 3 5 3 7 7 4 3 4 3 4 4 4 6 5 8 10 10 13 6 7 10 13 13 8 10 7 8 9 10 8 10 11 12 13 12
2 3 5 7 17 4 7 3 3 4 3 3 4 4 4 5 6 7 6 7 5 4 3 3 2 5 2 4 2 1 2 3 3 1 2 2 3 2 2 2 6 5 5 5 5 7 4 3 3 4 3 4 7 5 4 5 5 4 1 2 3 4 5 7 7 5 4 7 11 9 15 5 6 6 7 12 12 8 11 10 8 11 11 9 7 5 7 8
4 3 3 5 12 11 6 2 2 2 4 4 4 7 5 3 6 6 4 6 5 4 1 3 4 4 3 4 2 1 3 3 1 2 3 1 2 1 2 1 3 5 4 7 7 6 4 4 2 3 7 11 12 11 7 2 3 4 1 1 3 6 9 6 4 3 6 5 10 11 10 3 2 2 5 9 10 11 6 5 5 9 10 10 9 6 5 5
4 3 5 4 7 8 8 5 5 3 3 4 4 4 4 3 3 6 5 5 8 4 4 3 4 2 7 6 2 2 1 3 3 1 2 2 2 1 3 4 3 6 5 7 8 5 3 3 5 6 6 7 5 4 1 4 5 3 5 8 7 3 3 2 2 3 7 4 7 9 6 7 5 6 10 11 9 12 6 5 7 7 7 7 7 7 8 9
1 3 4 6 3 6 5 6 6 5 3 2 2 2 5 6 4 1 8 2 7 5 3 7 7 4 5 4 3 3 2 4 2 5 4 4 2 3 3 5 7 7 4 4 6 4 2 4 8 9 11 12 12 8 6 7 9 9 10 11 9 7 3 4 4 5 7 7 11 3 5 11 11 8 6 6 7 6 7 7 7 5 5 5 5 6 8 8
2 1 1 1 2 5 6 6 8 5 3 1 3 1 4 5 6 4 3 4 4 5 1 2 6 7 4 5 4 3 2 5 3 3 1 3 4 3 7 4 5 5 4 3 4 3 4 5 5 7 12 12 11 10 7 7 9 9 10 12 13 10 7 7 10 11 10 8 7 11 12 5 4 7 10 12 13 13 14 14 10 7 7 7 7 8 9 9
2 2 1 1 1 2 2 4 6 5 3 0 2 4 4 5 4 3 3 3 3 3 6 1 4 7 5 3 2 2 2 3 1 1 3 5 5 5 5 6 5 3 3 3 3 2 3 5 7 7 12 13 12 10 8 10 10 11 11 12 12 12 12 11 12 13 13 13 9 13 15 20 10 13 11 11 12 12 13 11 9 9 9 7 8 9 12 13
4 3 2 2 1 0 1 3 3 4 3 5 1 4 3 4 4 5 1 2 0 2 2 2 5 6 7 2 2 4 2 3 4 5 3 4 8 4 5 6 6 1 4 4 4 1 2 2 6 8 9 10 9 8 10 10 10 12 12 12 13 13 12 11 10 11 10 11 15 17 15 17 7 3 9 12 11 9 9 7 8 8 8 8 9 12 14 15
1 2 2 2 3 3 2 4 4 4 1 3 2 3 3 3 5 6 4 2 2 1 4 5 6 8 4 3 4 7 5 5 7 9 10 9 9 4 3 1 1 3 3 5 3 2 1 6 5 6 8 9 4 7 7 6 8 12 14 14 13 10 9 4 3 4 6 6 6 7 11 9 5 12 12 12 11 9 9 7 7 7 9 9 10 12 13 14
1 1 2 2 3 3 4 3 2 1 2 3 3 3 3 3 4 7 4 1 1 2 4 4 7 7 6 5 6 3 5 8 11 12 10 10 11 12 11 12 11 10 8 8 6 7 4 4 4 4 6 10 6 2 4 5 7 12 14 15 13 10 5 1 2 2 6 5 6 8 5 9 12 11 14 14 13 12 8 5 7 9 10 11 13 14 14 15
Wind_Direction
348 349 346 344 341 339 336 335 331 329 326 325 322 320 317 318 312 311 310 308 306 306 309 311 310 308 309 307 311 309 304 307 296 266 243 245 157 214 181 207 179 197 211 147 140 147 154 158 159 160 159 166 177 198 192 215 230 182 204 232 247 249 240 239 224 145 32 212 158 171 176 157 148 164 141 138 138 134 146 130 106 75 89 120 122 138 143 150
349 348 346 344 340 339 337 334 331 328 326 324 321 318 317 315 312 310 307 306 304 303 306 310 309 308 307 306 304 310 310 290 280 264 240 214 183 204 206 223 170 184 182 153 156 161 151 164 161 163 161 178 163 196 172 193 188 195 202 220 249 200 204 257 344 326 320 5 173 179 179 179 161 160 160 162 148 146 142 131 130 101 106 115 135 141 148 154
345 346 346 343 340 338 336 332 329 326 323 321 320 319 316 312 311 307 305 303 303 302 306 308 308 308 307 302 294 302 327 284 259 252 262 234 224 200 197 187 173 182 180 165 170 163 162 165 160 160 170 172 184 188 192 188 192 210 224 223 238 233 252 266 280 287 290 311 166 181 180 187 151 172 162 185 159 167 169 149 152 140 139 142 146 148 151 158
344 341 340 344 341 338 334 330 330 328 324 321 318 317 312 311 308 306 304 302 299 302 305 304 304 308 302 306 303 287 271 267 254 265 227 290 201 202 187 180 174 176 177 165 162 156 140 144 152 158 151 180 170 199 190 195 196 178 218 226 246 248 253 79 331 286 280 256 178 176 168 178 168 173 176 163 159 197 196 178 169 163 152 152 154 154 157 161
341 338 337 339 342 337 333 331 330 325 321 319 316 316 312 311 306 303 303 300 298 299 302 303 299 298 304 254 76 57 231 276 92 281 283 342 193 186 183 176 169 166 169 155 136 127 143 146 151 154 161 164 164 188 219 202 218 194 225 240 240 89 236 354 316 59 36 28 167 158 169 201 162 178 195 175 192 199 204 191 177 154 151 155 160 160 162 165
341 338 336 334 335 334 332 331 328 322 319 317 317 315 311 310 308 302 301 299 295 295 298 298 294 286 265 91 157 250 255 314 357 321 344 335 176 171 172 170 162 156 156 150 153 149 146 154 152 158 176 163 176 189 194 208 196 231 231 248 249 257 284 313 315 323 336 355 274 189 199 132 175 193 200 197 211 95 153 167 159 154 158 157 157 160 166 169
339 337 335 334 333 336 334 328 327 322 319 317 314 314 312 311 306 304 298 296 292 287 287 288 268 254 260 232 297 282 241 296 346 323 334 328 149 157 161 165 155 155 155 150 152 152 164 158 170 168 163 176 194 201 139 194 209 237 253 262 250 247 256 275 283 299 304 303 294 264 181 194 187 210 195 215 220 47 134 148 143 147 151 152 159 168 170 172
337 336 334 335 334 335 335 330 326 326 320 317 314 315 315 310 308 301 300 296 291 288 281 255 228 151 154 161 204 237 197 253 315 319 332 353 139 153 155 161 158 159 164 164 160 164 162 165 178 156 177 181 170 194 173 191 208 227 247 256 264 273 274 279 282 286 294 290 282 261 206 215 194 207 170 214 207 136 136 139 141 144 152 161 162 167 169 172
336 334 336 336 335 336 334 333 331 325 321 317 316 314 316 314 307 299 300 300 299 287 271 236 212 215 156 231 276 313 272 220 301 332 7 72 133 152 153 150 167 166 170 165 171 162 162 180 167 173 191 188 160 189 187 186 221 224 235 250 283 272 290 289 288 282 280 281 280 274 245 237 214 182 217 199 187 143 139 143 146 149 155 165 169 169 170 173
336 336 336 336 336 337 335 334 330 325 322 319 316 320 318 316 306 300 303 303 300 282 235 203 190 187 164 225 252 301 84 177 22 35 43 87 123 155 172 157 165 169 166 173 168 166 182 173 178 180 128 186 160 195 184 210 131 189 237 252 269 276 283 278 272 277 276 271 270 264 262 246 200 186 238 184 155 142 146 150 155 157 164 167 170 172 173 172
339 338 337 336 338 336 334 333 330 327 322 320 316 323 319 315 311 306 304 304 280 225 189 176 168 174 180 215 307 274 89 237 1 7 18 134 138 170 189 175 169 170 173 169 179 177 176 162 143 122 177 211 169 190 196 208 258 262 301 281 264 270 270 270 264 262 262 273 248 238 254 263 192 199 235 154 152 153 152 156 162 166 167 170 170 171 174 178
339 339 338 338 337 336 334 334 331 327 323 319 317 321 324 316 312 311 305 310 180 174 185 177 168 194 106 204 240 244 81 318 315 316 323 249 192 191 188 191 181 176 168 171 184 184 173 168 162 173 188 131 193 94 228 223 236 251 283 288 283 295 285 267 253 251 203 254 240 242 264 249 179 220 215 148 155 159 154 161 165 169 170 170 171 171 176 178
340 339 338 337 336 335 334 334 332 328 322 317 317 320 321 313 310 305 311 102 150 151 167 167 169 260 227 269 230 251 287 301 312 313 312 220 233 210 162 192 206 351 213 182 177 177 145 178 188 188 67 193 147 194 34 195 215 240 250 264 294 287 277 270 224 228 206 236 194 170 256 229 199 209 160 151 158 159 156 164 169 169 171 173 174 175 177 179
339 338 337 337 336 336 334 335 333 327 320 320 319 319 317 308 307 308 127 134 143 148 154 154 153 178 254 258 264 242 262 277 293 289 16 49 141 160 179 169 180 273 119 152 125 147 145 196 250 225 38 235 177 7 234 138 178 213 226 227 256 276 250 117 217 137 204 187 183 190 255 264 209 191 159 159 159 162 167 168 171 171 173 174 177 177 179 182
337 337 337 336 339 335 334 335 332 327 322 321 322 322 313 308 301 119 118 116 138 142 138 138 133 191 233 272 274 276 250 233 222 357 332 95 130 121 176 163 175 155 120 152 151 155 118 166 180 219 214 27 289 248 225 205 172 199 174 225 219 229 261 220 154 195 222 146 196 184 250 263 277 172 163 165 168 167 170 171 174 174 177 177 179 181 181 184
338 335 337 337 336 337 336 334 333 326 324 323 326 325 310 306 161 129 113 125 146 139 129 159 197 293 282 331 72 252 225 309 330 333 306 7 198 185 159 167 155 111 164 96 138 165 113 163 190 210 235 227 239 222 216 227 212 210 221 206 209 200 244 277 214 224 229 224 193 204 245 261 255 161 166 170 170 175 171 173 177 178 179 178 181 182 183 181
338 336 335 333 337 338 337 335 332 330 325 326 325 331 325 159 122 115 117 123 132 132 234 310 177 163 242 94 214 225 354 305 300 292 259 251 230 184 146 148 167 143 111 100 144 164 171 174 151 200 235 243 221 196 214 227 216 203 205 226 190 198 224 240 297 235 218 220 207 212 240 250 278 139 167 175 175 177 177 178 179 179 180 182 181 183 183 184
335 335 333 333 335 338 335 334 332 330 326 328 325 302 304 104 111 111 78 58 138 21 16 345 114 213 223 289 352 317 314 297 290 298 295 275 202 172 156 159 147 149 153 111 126 175 176 188 171 211 183 214 207 205 207 214 208 198 190 212 206 228 242 248 208 92 179 177 235 214 234 248 247 134 177 182 184 182 185 181 180 180 181 181 184 186 187 188
335 334 333 334 335 337 334 331 332 330 329 323 303 352 154 100 1 281 293 157 214 178 245 45 357 31 304 314 307 289 312 303 292 270 254 101 150 163 148 136 156 150 169 174 162 169 167 179 177 210 211 203 207 204 205 49 176 213 194 210 212 209 216 229 236 262 309 268 221 223 238 243 243 219 188 187 192 194 194 183 179 181 181 182 186 188 189 192
336 334 334 334 336 336 334 332 330 329 335 332 24 3 233 37 32 226 333 346 63 45 274 293 165 260 291 292 310 314 299 270 353 128 271 140 134 152 136 152 157 172 161 186 151 195 157 189 197 204 210 206 203 206 214 241 29 116 203 217 225 228 240 233 220 273 274 282 257 248 247 250 250 228 200 191 189 200 194 187 184 183 183 186 189 191 193 194
337 335 334 335 334 337 333 333 330 327 331 321 300 43 45 355 358 342 343 305 282 279 267 274 254 254 270 314 306 335 360 335 45 294 19 178 150 144 141 149 160 178 189 174 151 132 177 210 218 218 210 179 180 195 212 234 249 265 218 211 221 222 236 213 103 327 295 266 259 215 273 262 253 240 211 183 186 199 202 195 191 187 188 190 191 193 193 191
339 336 334 334 334 335 334 332 328 328 312 261 28 64 110 75 70 281 286 319 316 277 261 271 305 273 265 254 265 305 185 304 15 23 49 237 158 187 159 174 174 183 170 147 124 159 198 214 221 210 150 122 177 197 208 217 229 241 239 217 243 225 263 288 264 262 275 280 269 280 274 271 263 243 199 186 193 206 205 198 192 186 190 191 193 193 188 184
341 338 333 333 333 333 334 328 325 326 350 18 47 63 67 86 334 242 237 252 272 259 297 309 249 281 293 240 116 213 331 4 346 340 24 294 169 267 163 178 186 169 162 177 183 173 204 230 223 158 154 188 188 194 201 216 227 231 229 228 219 153 186 218 115 53 346 238 284 324 286 273 275 210 217 206 199 212 208 205 199 193 190 191 191 188 187 187
338 336 333 333 332 333 331 326 303 316 41 322 65 60 111 32 343 309 207 277 324 317 257 338 318 292 316 337 41 338 345 347 230 351 25 293 180 94 190 193 175 175 188 188 196 193 197 39 177 132 171 194 201 196 197 207 221 222 234 235 228 211 226 288 32 329 312 251 260 272 270 265 255 247 224 211 210 216 203 196 200 202 205 202 197 198 194 191
336 335 334 334 334 331 328 320 39 360 298 198 159 121 331 323 324 289 221 251 194 251 157 230 211 253 328 262 250 300 3 255 239 271 293 318 324 187 218 174 193 203 190 187 202 213 223 201 153 157 191 196 203 204 207 205 225 225 228 232 233 238 249 255 285 315 284 259 221 269 265 256 224 232 247 190 182 214 202 196 203 200 194 191 199 200 197 199
337 334 335 337 335 332 317 119 11 345 327 97 50 17 336 317 300 229 235 45 4 52 222 33 264 41 252 349 326 331 263 188 171 300 276 315 302 251 113 205 200 207 177 180 203 225 224 162 170 181 182 193 202 217 206 202 226 231 232 212 226 240 243 255 263 271 259 246 102 343 252 260 139 223 220 184 194 210 196 208 210 202 197 199 201 196 197 195
337 332 334 337 337 336 344 1 338 293 346 4 340 334 323 316 266 178 230 199 205 35 17 1 292 63 312 355 326 257 200 356 327 282 337 20 304 172 224 179 177 234 158 149 202 224 188 186 175 189 196 194 197 214 204 196 216 236 217 177 202 225 234 241 253 252 267 307 293 274 268 277 273 234 179 186 211 218 204 211 210 201 198 204 203 202 199 196
335 331 333 334 335 341 344 319 330 2 346 311 319 317 320 314 136 161 247 274 256 42 6 328 14 303 328 327 335 32 332 318 311 21 349 344 291 177 234 201 199 195 167 179 215 104 177 198 183 189 203 207 214 212 193 192 212 233 167 160 190 211 224 233 240 249 256 289 267 238 204 256 260 200 105 177 218 219 217 214 211 207 208 207 205 202 200 199
333 328 330 333 329 322 281 298 257 335 320 318 315 313 321 350 204 254 13 261 69 54 166 31 153 305 338 314 30 16 338 18 359 321 329 270 7 245 215 212 207 200 186 196 224 166 198 215 183 191 201 223 214 211 195 185 212 215 111 181 201 205 213 223 234 244 248 240 249 237 199 244 265 256 181 166 235 233 217 212 212 207 211 207 205 205 203 199
333 328 327 331 325 155 218 230 234 296 308 322 315 319 293 173 212 218 70 222 26 74 350 301 332 330 314 336 38 11 16 2 345 320 355 10 2 36 13 344 269 211 207 208 232 235 235 218 185 190 209 220 187 209 196 194 209 128 180 169 177 200 208 210 230 232 248 244 241 240 209 220 261 256 228 186 220 219 187 203 214 214 217 213 210 204 200 198
332 329 326 333 312 4 280 287 307 327 322 321 319 293 178 98 236 132 227 62 299 63 250 22 11 332 13 25 3 3 4 2 0 360 14 8 22 33 5 194 3 233 226 216 224 227 234 206 189 208 201 194 198 200 203 203 202 184 195 199 167 179 171 206 197 194 232 247 237 225 215 203 238 251 247 223 150 200 205 218 211 212 213 210 207 203 202 199
332 328 325 329 210 307 357 329 314 318 318 319 308 151 195 206 191 220 168 145 243 33 27 354 14 348 4 343 24 1 352 353 16 17 25 26 45 45 20 26 352 215 216 211 215 156 221 224 172 172 193 193 183 205 193 203 203 206 200 198 205 197 183 211 183 209 220 242 226 208 198 223 235 248 267 254 189 221 222 232 227 212 214 211 207 203 203 200
331 326 319 276 196 215 214 265 298 305 313 303 240 44 226 194 218 127 322 343 106 360 51 204 345 1 354 18 28 351 343 28 358 29 352 48 39 75 50 29 2 306 247 121 213 174 221 210 182 211 185 198 194 203 183 196 202 203 205 195 195 204 203 221 211 230 253 228 177 12 190 240 270 242 236 252 249 231 221 224 233 226 210 204 204 202 200 197
329 319 319 251 253 234 263 286 288 310 320 278 166 181 141 221 185 49 45 34 37 101 337 351 338 331 37 49 22 354 25 51 22 26 27 61 36 21 8 24 16 357 315 280 211 185 208 192 217 192 206 34 235 216 203 206 181 205 204 205 208 208 203 214 208 214 229 267 215 159 165 233 173 238 191 236 239 242 229 222 228 224 216 203 202 198 198 197
321 297 281 292 253 225 239 279 303 317 285 304 21 173 216 184 70 148 108 10 7 335 17 2 340 353 47 48 12 36 9 18 26 32 40 47 40 32 7 354 0 4 326 263 91 242 245 293 50 9 341 306 194 343 321 205 203 201 199 209 217 216 196 230 192 227 247 243 229 185 214 72 224 8 297 262 251 237 223 216 219 223 213 201 194 197 199 200
316 334 319 297 341 328 329 322 314 312 264 334 197 77 118 17 136 54 110 349 313 319 347 113 45 50 35 22 34 5 50 337 20 354 69 65 49 35 11 355 357 4 10 341 15 256 125 231 48 340 172 152 66 345 291 221 219 185 189 207 216 192 202 225 263 240 5 263 252 201 225 246 299 280 252 231 239 242 235 226 222 224 210 186 195 198 199 199
341 337 45 328 275 330 326 322 311 272 157 116 160 111 84 115 4 246 15 306 9 282 28 329 45 7 18 20 12 12 5 315 25 347 55 340 84 28 11 352 349 351 12 345 302 16 298 294 5 331 167 134 342 304 251 255 271 137 207 210 144 177 219 222 238 196 229 243 227 177 223 236 215 252 203 229 222 238 232 225 222 223 197 187 200 198 198 198
313 329 256 287 337 332 331 334 292 155 107 110 89 98 269 97 20 344 346 311 170 135 135 102 96 315 95 338 23 9 7 344 22 11 61 19 97 29 28 349 337 347 341 356 293 46 335 273 215 128 295 299 323 295 243 231 228 229 243 144 183 183 202 205 225 231 226 230 243 220 212 246 222 224 159 212 233 241 239 221 227 225 198 202 204 202 199 198
260 301 65 360 342 340 329 326 102 89 98 95 88 115 57 76 60 21 341 276 324 137 92 66 5 57 12 91 352 13 11 7 2 8 313 23 297 49 58 350 344 339 347 346 309 336 289 268 177 147 353 316 285 184 221 200 203 247 53 193 203 218 213 194 206 259 241 248 238 241 190 241 216 237 237 237 224 230 241 237 225 227 203 204 207 205 197 193
345 306 50 356 346 341 325 281 62 51 57 97 100 73 336 74 24 9 11 336 68 331 95 144 69 114 75 62 339 354 40 353 5 12 324 45 201 64 20 9 341 330 341 336 325 350 288 348 266 134 292 259 205 199 199 18 199 200 212 218 180 223 6 226 204 215 217 238 239 249 243 224 225 211 236 238 234 235 232 228 224 218 217 215 208 198 194 194
321 257 80 1 344 335 302 44 44 37 75 90 62 35 11 49 10 11 5 15 85 34 39 108 144 112 28 196 129 18 295 120 295 328 352 58 346 42 57 359 339 335 329 316 343 8 331 323 282 316 285 217 153 74 112 354 322 297 322 255 265 223 199 201 224 203 225 228 234 223 243 240 185 175 219 219 223 228 229 236 232 222 216 218 216 205 194 193
315 15 359 345 335 338 7 62 43 17 42 60 56 351 28 357 46 9 9 17 37 57 24 87 59 72 58 64 13 33 318 224 141 294 100 339 86 339 47 347 335 327 327 359 335 357 338 303 297 282 264 271 287 311 318 278 244 260 253 302 345 315 323 230 227 206 210 232 242 245 273 249 212 247 205 245 254 233 232 221 229 235 232 221 214 210 202 198
20 347 312 312 338 329 67 75 54 47 52 25 290 216 295 54 28 12 25 12 39 9 42 46 25 315 69 348 112 282 330 257 201 248 357 284 284 337 36 356 337 336 328 346 315 3 305 254 266 271 290 269 265 303 110 84 154 148 132 26 359 42 10 334 332 353 291 214 204 228 240 254 183 215 258 266 232 254 294 286 274 261 242 230 217 206 204 198
310 307 319 329 339 335 64 61 44 38 50 6 33 61 34 60 36 31 40 28 21 12 30 31 112 28 21 358 334 283 9 285 146 236 220 221 304 153 207 278 349 344 349 15 332 1 309 138 298 301 240 223 206 132 127 72 81 68 22 18 22 345 322 303 267 263 252 231 231 218 245 224 194 187 204 237 264 234 237 244 237 250 269 276 284 254 223 209
293 238 248 329 3 36 71 29 46 41 44 18 20 44 18 70 31 30 30 48 17 20 329 67 25 7 35 347 337 10 51 353 309 215 310 267 290 115 237 313 326 335 320 344 349 337 278 303 323 255 215 191 194 203 201 164 358 336 243 295 333 339 350 346 217 189 245 214 227 238 246 221 203 182 225 238 249 272 244 219 226 235 246 254 258 256 242 225
8 8 351 359 26 56 78 65 53 31 52 21 65 42 17 49 55 26 11 80 21 24 45 40 32 23 28 358 6 4 286 26 322 330 307 265 266 226 240 254 299 316 311 328 345 329 284 278 246 258 277 279 5 33 287 255 317 291 306 309 314 341 332 303 276 271 239 348 251 244 277 276 255 207 218 225 237 252 271 185 206 229 240 245 256 247 219 203
303 54 343 353 315 71 80 53 34 23 37 352 61 14 38 25 343 86 8 82 19 11 65 55 40 39 13 1 21 318 351 319 342 297 258 263 254 319 358 279 283 285 310 323 348 310 264 265 247 259 262 264 291 309 327 305 285 288 298 299 307 304 294 257 231 232 19 340 262 236 255 266 256 259 273 285 278 255 244 243 242 241 239 240 240 237 239 219
70 85 31 346 337 1 2 31 14 0 13 256 85 3 39 21 29 29 0 51 355 36 10 164 49 51 30 8 323 291 320 318 294 271 345 247 313 330 318 305 272 293 273 305 338 320 295 266 285 278 267 273 275 282 287 280 260 266 278 284 292 296 276 253 250 253 262 248 265 326 312 288 313 290 309 322 352 332 322 318 332 334 303 278 279 283 276 258
53 106 82 291 89 55 2 333 342 350 350 80 105 44 54 28 38 16 329 328 5 66 23 17 14 4 2 347 291 282 297 298 221 335 298 308 298 327 303 311 267 235 228 291 337 334 286 266 272 280 283 277 270 266 256 258 269 271 267 273 274 281 278 266 267 264 250 246 245 256 279 282 280 280 300 316 314 308 304 306 303 293 285 282 272 259 253 249
45 30 42 4 54 334 316 350 351 355 57 9 115 39 30 20 15 360 347 268 69 80 16 24 351 346 336 326 232 249 265 291 299 284 298 303 294 267 284 273 284 197 258 284 317 16 284 308 350 328 298 280 271 252 241 242 264 273 270 269 274 272 271 265 266 271 277 258 244 251 260 270 290 341 321 305 298 292 288 294 310 312 312 301 282 263 252 245
34 29 337 350 42 42 67 1 7 12 49 51 47 25 351 21 10 351 307 244 232 37 8 345 343 325 317 284 243 250 265 271 276 266 276 276 275 279 274 252 223 279 261 278 284 272 258 287 321 307 297 284 272 246 231 240 253 268 272 269 265 260 250 226 237 337 322 296 285 251 245 255 346 334 323 309 299 298 307 315 319 321 319 312 292 283 274 262
93 45 334 318 32 25 16 4 353 305 60 35 344 355 333 340 344 337 336 153 254 250 305 316 326 317 290 284 284 286 312 294 283 281 273 266 257 260 249 253 256 262 271 263 263 268 251 288 303 311 274 271 272 269 271 271 273 265 256 246 241 239 236 204 180 336 12 325 264 240 251 6 319 332 321 313 309 303 300 308 329 320 311 302 293 286 281 272